This demonstration page uses our WeatherBlox Daily Observations layout. Learn more.

Left ArrowRight Arrow

Hourly Observations for October 17, 2016

Temp ( °F °C ) Dew Point ( °F °C ) Humidity (%) Winds ( mph kmh ) Pressure ( in mb ) Visibility ( mi km ) Precip ( " mm )
12:53 am 00:53 Clear 65 18.3 54 12.2 68 68 SE 7 11 29.78 1008 10 16 0.00 0.00
1:53 am 01:53 Clear 63 17.2 55 12.8 76 76 SE 7 11 29.78 1008 10 16 0.00 0.00
2:53 am 02:53 Clear 63 17.2 58 14.4 84 84 SE 6 9 29.75 1008 10 16 0.00 0.00
3:53 am 03:53 Clear 59 15 56 13.3 90 90 SE 6 9 29.75 1007 10 16 0.00 0.00
4:53 am 04:53 Clear 57 13.9 55 12.8 93 93 SE 7 11 29.74 1007 10 16 0.00 0.00
5:53 am 05:53 Clear 56 13.3 54 12.2 93 93 SE 3 6 29.74 1007 10 16 0.00 0.00
6:53 am 06:53 Clear 57 13.9 55 12.8 93 93 SE 9 15 29.76 1008 10 16 0.00 0.00
7:53 am 07:53 Clear 57 13.9 55 12.8 93 93 Calm 29.77 1008 10 16 0.00 0.00
8:53 am 08:53 Sunny 55 12.8 52 11.1 90 90 N 3 6 29.80 1009 10 16 0.00 0.00
9:53 am 09:53 Sunny 66 18.9 54 12.2 65 65 SSE 7 11 29.79 1009 10 16 0.00 0.00
10:53 am 10:53 Sunny 76 24.4 46 7.8 35 35 SSW 7 11 29.78 1009 10 16 0.00 0.00
11:53 am 11:53 Sunny 83 28.3 44 6.7 25 25 SW 10 17 29.75 1007 10 16 0.00 0.00
12:53 pm 12:53 Sunny 90 32.2 41 5 18 18 WSW 20 31 29.72 1006 10 16 0.00 0.00
1:53 pm 13:53 Sunny 93 33.9 40 4.4 16 16 WSW 20 31 29.69 1005 10 16 0.00 0.00
2:53 pm 14:53 Sunny 95 35 38 3.3 14 14 WSW 17 28 29.65 1004 10 16 0.00 0.00
3:53 pm 15:53 Sunny 96 35.6 36 2.2 12 12 WSW 23 37 29.63 1003 10 16 0.00 0.00
4:53 pm 16:53 Sunny 96 35.6 36 2.2 12 12 WSW 20 31 29.62 1003 10 16 0.00 0.00
5:53 pm 17:53 Sunny 94 34.4 31 -0.6 11 11 W 20 31 29.62 1003 10 16 0.00 0.00
6:53 pm 18:53 Sunny 90 32.2 30 -1.1 12 12 WSW 12 19 29.62 1003 10 16 0.00 0.00
7:53 pm 19:53 Clear 77 25 33 0.6 20 20 SW 10 17 29.66 1004 10 16 0.00 0.00
8:53 pm 20:53 Clear 71 21.7 36 2.2 28 28 SW 10 17 29.69 1006 10 16 0.00 0.00
9:53 pm 21:53 Clear 71 21.7 36 2.2 28 28 WSW 9 15 29.69 1005 10 16 0.00 0.00
10:53 pm 22:53 Clear 65 18.3 38 3.3 37 37 SW 9 15 29.69 1005 10 16 0.00 0.00
11:53 pm 23:53 Clear 64 17.8 38 3.3 38 38 S 9 15 29.69 1005 10 16 0.00 0.00

Powered by AerisWeather